User: anonymous   Login
Location: Chiroubles
(46.1812°N, 4.6660°E)
Time: 13:43:40
(UTC+00:00)
Language:

Cosmos 1980 - Orbit

View from above orbital plane
View from above orbital plane
View from above satellite
View from above satellite

Ground track
Ground track

The orbit data is extracted from the following two-line orbital elements,

1 19649U 88102A   20294.53282191 -.00000294 +00000-0 -12784-3 0  9998
2 19649 071.0027 022.2818 0007926 262.3221 097.7001 14.14718608647307
Epoch (UTC): 20 October 2020 12:47:15
Eccentricity: 0.0007926
inclination: 71.0027°
perigee height: 837 km
apogee height: 849 km
right ascension of ascending node: 22.2818°
argument of perigee: 262.3221°
revolutions per day: 14.14718608
mean anomaly at epoch: 97.7001°
orbit number at epoch: 64730

The dashed part of the orbit path shows where the satellite is in the earth's shadow,  

DLR